Weather History for New Bedford, MA

Change the Weather History Date:

Sunday, January 20, 2013

  Actual Average Record
Temperature  
Mean Temperature 42 °F -  
Max Temperature 55 °F 35 °F 55 °F (2013)
Min Temperature 30 °F 21 °F 2 °F (1971)
Degree Days  
Heating Degree Days 22    
Moisture  
Dew Point 28 °F    
Average Humidity 53    
Maximum Humidity 77    
Minimum Humidity 34    
Precipitation  
Precipitation 0.00 in - - ()
Sea Level Pressure  
Sea Level Pressure 29.76 in    
Wind  
Wind Speed 16 mph (WSW)    
Max Wind Speed 23 mph    
Max Gust Speed 33 mph    
Visibility 10 miles    
Events      
Averages and records for this station are not official NWS values.
T = Trace of Precipitation, MM = Missing Value Source: NWS Daily Summary

Daily Weather History Graph

Daily Weather History Graph

Search for Another Location

Airport:

Trip Planner

Search our weather history database for the weather conditions in past years. The results will help you decide how hot, cold, wet, or windy it might be!

Date:

Astronomy

Jan. 20, 2013 Rise Set
Actual Time 7:05 AM EST 4:44 PM EST
Civil Twilight 6:35 AM EST 5:14 PM EST
Nautical Twilight 6:01 AM EST 5:48 PM EST
Astronomical Twilight 5:28 AM EST 6:22 PM EST
Moon 11:44 AM EST (1/20) 1:34 AM EST (1/20)
Length of Visible Light 10h 39m
Length of Day
9h 39m
Waxing Gibbous, 66% of the Moon is Illuminated
Jan 20
Waxing Gibbous
Jan 26
Full
Feb 3
Last Quarter
Feb 10
New
Feb 17
First Quarter

Hourly Weather History & Observations

Time (EST) Temp. Windchill Dew Point Humidity Pressure Visibility Wind Dir Wind Speed Gust Speed Precip Events Conditions
12:53 AM 46.9 °F - 39.9 °F 77% 29.91 in 10.0 mi SW 17.3 mph 28.8 mph N/A   Clear
1:53 AM 46.9 °F - 39.0 °F 74% 29.89 in 10.0 mi SW 17.3 mph 33.4 mph N/A   Clear
2:53 AM 46.0 °F 38.5 °F 37.9 °F 73% 29.86 in 10.0 mi SW 19.6 mph 27.6 mph N/A   Clear
3:53 AM 46.0 °F 39.0 °F 37.0 °F 71% 29.82 in 10.0 mi SW 17.3 mph 28.8 mph N/A   Clear
4:53 AM 46.0 °F 38.8 °F 36.0 °F 68% 29.79 in 10.0 mi SW 18.4 mph 26.5 mph N/A   Clear
5:53 AM 45.0 °F 37.4 °F 36.0 °F 71% 29.76 in 10.0 mi SW 18.4 mph 26.5 mph N/A   Clear
6:53 AM 46.0 °F 39.0 °F 35.1 °F 66% 29.73 in 10.0 mi SW 17.3 mph 26.5 mph N/A   Clear
7:53 AM 46.9 °F - 35.1 °F 63% 29.72 in 10.0 mi SW 20.7 mph 28.8 mph N/A   Clear
8:53 AM 48.0 °F - 35.1 °F 61% 29.71 in 10.0 mi SSW 23.0 mph 33.4 mph N/A   Clear
9:53 AM 48.9 °F - 35.1 °F 59% 29.70 in 10.0 mi SW 19.6 mph 32.2 mph N/A   Clear
10:53 AM 51.1 °F - 34.0 °F 52% 29.67 in 10.0 mi SW 17.3 mph 33.4 mph N/A   Clear
11:53 AM 53.1 °F - 33.1 °F 47% 29.62 in 10.0 mi SW 15.0 mph 32.2 mph N/A   Clear
12:53 PM 53.1 °F - 33.1 °F 47% 29.59 in 10.0 mi SW 19.6 mph 31.1 mph N/A   Clear
1:53 PM 55.0 °F - 28.0 °F 35% 29.60 in 10.0 mi WSW 19.6 mph 32.2 mph N/A   Clear
2:53 PM 54.0 °F - 27.0 °F 35% 29.62 in 10.0 mi WSW 21.9 mph 31.1 mph N/A   Clear
3:53 PM 51.1 °F - 27.0 °F 39% 29.65 in 10.0 mi West 11.5 mph 21.9 mph N/A   Clear
4:53 PM 48.0 °F - 27.0 °F 44% 29.69 in 10.0 mi WNW 8.1 mph - N/A   Scattered Clouds
5:53 PM 45.0 °F 41.2 °F 27.0 °F 49% 29.72 in 10.0 mi West 6.9 mph - N/A   Clear
6:53 PM 42.1 °F 36.6 °F 15.1 °F 34% 29.78 in 10.0 mi NW 9.2 mph 20.7 mph N/A   Clear
7:53 PM 39.0 °F 35.7 °F 15.1 °F 38% 29.81 in 10.0 mi NW 4.6 mph 17.3 mph N/A   Clear
8:53 PM 35.1 °F 26.4 °F 15.1 °F 44% 29.86 in 10.0 mi WNW 12.7 mph 21.9 mph N/A   Clear
9:53 PM 33.1 °F 23.0 °F 12.9 °F 43% 29.90 in 10.0 mi WNW 15.0 mph 20.7 mph N/A   Clear
10:53 PM 30.9 °F 24.3 °F 10.9 °F 43% 29.92 in 10.0 mi WNW 6.9 mph - N/A   Clear
11:53 PM 30.0 °F 22.4 °F 8.1 °F 40% 29.93 in 10.0 mi NW 8.1 mph 20.7 mph N/A   Clear